Abingdon, VA

5:21 AM EDT on September 16, 2019 (GMT -0400)
Virginia Highlands

Weather History for KVJI - July, 2019

Change the Weather History Date:

Sunday, July 14, 2019

  Actual Average (KTRI) Record (KTRI)
Temperature  
Mean Temperature 78 °F -  
Max Temperature 86 °F 85 °F 98 °F (1954)
Min Temperature 69 °F 65 °F 51 °F (2001)
Cooling Degree Days 12    
Growing Degree Days 28 (Base 50)    
Moisture  
Dew Point 68 °F    
Average Humidity 78    
Maximum Humidity 100    
Minimum Humidity 43    
Precipitation  
Precipitation 0.00 in - - ()
Sea Level Pressure  
Sea Level Pressure 30.21 in    
Wind  
Wind Speed 7 mph (WNW)    
Max Wind Speed 13 mph    
Max Gust Speed 17 mph    
Visibility 10 miles    
Events      
Averages and records for this station are not official NWS values.
T = Trace of Precipitation, MM = Missing Value Source: NWS Daily Summary

Daily Weather History Graph

Daily Weather History Graph

Search for Another Location

Airport or City:

Astronomy

Jul. 14, 2019 Rise Set
Actual Time 6:20 AM EDT 8:47 PM EDT
Civil Twilight 5:50 AM EDT 9:17 PM EDT
Nautical Twilight 5:13 AM EDT 9:54 PM EDT
Astronomical Twilight 4:32 AM EDT 10:34 PM EDT
Moon 7:08 PM EDT (7/14) 4:20 AM EDT (7/14)
Length of Visible Light 15h 26m
Length of Day
14h 27m
Waxing Gibbous, 95% of the Moon is Illuminated
Jul 14
Waxing Gibbous
Jul 16
Full
Jul 24
Last Quarter
Jul 31
New
Aug 7
First Quarter

Hourly Weather History & Observations

Time (EDT) Temp. Heat Index Dew Point Humidity Pressure Visibility Wind Dir Wind Speed Gust Speed Precip Events Conditions
12:15 AM 74.7 °F - 72.3 °F 92% 30.19 in 10.0 mi WNW 6.9 mph - N/A   Overcast
12:35 AM 74.3 °F - 71.6 °F 91% 30.19 in 10.0 mi West 10.4 mph - N/A   Overcast
12:55 AM 73.6 °F - 70.7 °F 91% 30.18 in 10.0 mi West 11.5 mph - N/A   Overcast
1:15 AM 73.4 °F - 70.2 °F 90% 30.18 in 10.0 mi West 10.4 mph - N/A   Overcast
1:35 AM 72.7 °F - 70.0 °F 91% 30.19 in 10.0 mi West 9.2 mph - N/A   Overcast
1:55 AM 72.0 °F - 69.3 °F 91% 30.18 in 10.0 mi WSW 6.9 mph - N/A   Overcast
2:15 AM 71.2 °F - 68.7 °F 92% 30.18 in 10.0 mi SW 10.4 mph - N/A   Overcast
2:35 AM 70.7 °F - 68.2 °F 92% 30.18 in 10.0 mi WSW 10.4 mph - N/A   Overcast
2:55 AM 70.5 °F - 68.0 °F 92% 30.18 in 10.0 mi West 8.1 mph - N/A   Overcast
3:15 AM 70.3 °F - 68.2 °F 93% 30.19 in 10.0 mi West 8.1 mph - N/A   Overcast
3:35 AM 70.2 °F - 68.2 °F 93% 30.19 in 10.0 mi West 5.8 mph - N/A   Overcast
3:55 AM 69.8 °F - 68.2 °F 95% 30.19 in 10.0 mi West 5.8 mph - N/A   Overcast
4:15 AM 69.8 °F - 68.5 °F 96% 30.19 in 10.0 mi West 5.8 mph - N/A   Overcast
4:35 AM 69.4 °F - 68.9 °F 98% 30.19 in 10.0 mi West 3.5 mph - N/A   Overcast
4:55 AM 69.4 °F - 68.9 °F 98% 30.19 in 10.0 mi WNW 3.5 mph - N/A   Overcast
5:15 AM 69.4 °F - 69.1 °F 99% 30.19 in 10.0 mi West 8.1 mph - N/A   Overcast
5:35 AM 69.3 °F - 69.3 °F 100% 30.19 in 5.0 mi West 4.6 mph - N/A   Overcast
5:55 AM 69.3 °F - 69.3 °F 100% 30.20 in 7.0 mi WNW 3.5 mph - N/A   Overcast
6:15 AM 69.3 °F - 69.3 °F 100% 30.21 in 7.0 mi WNW 3.5 mph - N/A   Overcast
6:35 AM 69.4 °F - 69.4 °F 100% 30.21 in 7.0 mi Calm Calm - N/A   Overcast
6:55 AM 69.8 °F - 69.8 °F 100% 30.22 in 7.0 mi Calm Calm - N/A   Overcast
7:15 AM 70.0 °F - 70.0 °F 100% 30.23 in 7.0 mi West 3.5 mph - N/A   Overcast
7:35 AM 70.7 °F - 70.2 °F 98% 30.23 in 10.0 mi West 6.9 mph - N/A   Overcast
7:55 AM 71.1 °F - 70.0 °F 96% 30.24 in 10.0 mi West 5.8 mph - N/A   Overcast
8:15 AM 71.8 °F - 69.8 °F 93% 30.24 in 10.0 mi West 6.9 mph - N/A   Mostly Cloudy
8:35 AM 71.6 °F - 69.8 °F 94% 30.24 in 10.0 mi West 5.8 mph - N/A   Scattered Clouds
8:55 AM 71.6 °F - 70.0 °F 95% 30.25 in 10.0 mi WSW 6.9 mph - N/A   Mostly Cloudy
9:15 AM 73.2 °F - 69.8 °F 89% 30.25 in 10.0 mi WSW 5.8 mph - N/A   Overcast
9:35 AM 74.8 °F - 69.6 °F 84% 30.25 in 10.0 mi WSW 9.2 mph - N/A   Overcast
9:55 AM 75.2 °F - 69.1 °F 81% 30.25 in 10.0 mi West 4.6 mph - N/A   Overcast
10:15 AM 75.7 °F - 68.7 °F 79% 30.25 in 10.0 mi WNW 6.9 mph - N/A   Overcast
10:35 AM 77.0 °F - 68.4 °F 75% 30.25 in 10.0 mi West 3.5 mph - N/A   Overcast
10:55 AM 77.2 °F - 68.4 °F 74% 30.25 in 10.0 mi WNW 6.9 mph - N/A   Mostly Cloudy
11:15 AM 77.4 °F - 68.7 °F 75% 30.25 in 10.0 mi West 4.6 mph - N/A   Overcast
11:35 AM 79.3 °F - 68.5 °F 69% 30.25 in 10.0 mi West 5.8 mph - N/A   Mostly Cloudy
11:55 AM 79.7 °F - 68.5 °F 69% 30.25 in 10.0 mi West 9.2 mph - N/A   Mostly Cloudy
12:15 PM 79.0 °F - 67.3 °F 67% 30.25 in 10.0 mi NW 6.9 mph - N/A   Mostly Cloudy
12:35 PM 80.2 °F 82.6 °F 67.1 °F 64% 30.24 in 10.0 mi NNW 3.5 mph - N/A   Mostly Cloudy
12:55 PM 82.2 °F 84.4 °F 66.2 °F 58% 30.24 in 10.0 mi NNW 8.1 mph - N/A   Scattered Clouds
1:15 PM 83.7 °F 85.1 °F 64.4 °F 52% 30.23 in 10.0 mi NNW 8.1 mph - N/A   Clear
1:35 PM 84.4 °F 85.9 °F 64.2 °F 51% 30.23 in 10.0 mi NNW 9.2 mph - N/A   Scattered Clouds
1:55 PM 84.4 °F 85.0 °F 62.2 °F 47% 30.23 in 10.0 mi NNW 8.1 mph - N/A   Clear
2:15 PM 84.4 °F 85.4 °F 63.1 °F 49% 30.22 in 10.0 mi WNW 8.1 mph - N/A   Scattered Clouds
2:35 PM 84.6 °F 84.4 °F 59.7 °F 43% 30.21 in 10.0 mi NW 5.8 mph - N/A   Clear
2:55 PM 84.9 °F 84.8 °F 60.1 °F 43% 30.21 in 10.0 mi North 8.1 mph - N/A   Scattered Clouds
3:15 PM 84.2 °F 84.4 °F 60.8 °F 45% 30.20 in 10.0 mi NNE 3.5 mph - N/A   Clear
3:35 PM 85.3 °F 85.4 °F 60.8 °F 44% 30.20 in 10.0 mi NNW 3.5 mph - N/A   Clear
3:55 PM 85.6 °F 86.1 °F 62.1 °F 45% 30.19 in 10.0 mi WNW 10.4 mph - N/A   Clear
4:15 PM 86.0 °F 86.1 °F 61.3 °F 43% 30.19 in 10.0 mi NNW 8.1 mph - N/A   Clear
4:35 PM 85.1 °F 85.4 °F 61.5 °F 45% 30.19 in 10.0 mi North 6.9 mph - N/A   Scattered Clouds
4:55 PM 84.6 °F 85.4 °F 63.0 °F 48% 30.18 in 10.0 mi NNW 6.9 mph - N/A   Mostly Cloudy
5:15 PM 83.7 °F 85.1 °F 64.4 °F 52% 30.18 in 10.0 mi NW 5.8 mph - N/A   Scattered Clouds
5:35 PM 83.3 °F 85.1 °F 65.1 °F 54% 30.18 in 10.0 mi NW 4.6 mph - N/A   Scattered Clouds
5:55 PM 84.9 °F 86.8 °F 65.5 °F 52% 30.18 in 10.0 mi NW 6.9 mph - N/A   Scattered Clouds
6:15 PM 82.6 °F 85.5 °F 67.8 °F 61% 30.18 in 10.0 mi NW 5.8 mph - N/A   Clear
6:35 PM 81.9 °F 84.8 °F 68.0 °F 63% 30.18 in 10.0 mi WNW 5.8 mph - N/A   Mostly Cloudy
6:55 PM 82.0 °F 85.7 °F 69.6 °F 66% 30.19 in 10.0 mi WNW 12.7 mph 17.3 mph N/A   Scattered Clouds
7:15 PM 79.2 °F - 67.1 °F 66% 30.19 in 10.0 mi WNW 10.4 mph 17.3 mph N/A   Clear
7:35 PM 77.4 °F - 65.5 °F 67% 30.19 in 10.0 mi WNW 6.9 mph - N/A   Clear
7:55 PM 76.3 °F - 66.2 °F 71% 30.20 in 10.0 mi WNW 6.9 mph - N/A   Scattered Clouds
8:15 PM 76.6 °F - 68.0 °F 75% 30.19 in 10.0 mi WNW 4.6 mph - N/A   Scattered Clouds
8:35 PM 75.7 °F - 69.1 °F 80% 30.19 in 10.0 mi WNW 3.5 mph - N/A   Scattered Clouds
8:55 PM 75.2 °F - 69.8 °F 83% 30.20 in 10.0 mi WNW 3.5 mph - N/A   Clear
9:15 PM 74.3 °F - 69.8 °F 86% 30.20 in 10.0 mi Calm Calm - N/A   Scattered Clouds
9:35 PM 73.6 °F - 69.6 °F 87% 30.22 in 10.0 mi Calm Calm - N/A   Clear
9:55 PM 72.1 °F - 69.3 °F 91% 30.22 in 10.0 mi Calm Calm - N/A   Clear
10:15 PM 71.1 °F - 69.3 °F 94% 30.22 in 10.0 mi Calm Calm - N/A   Clear
10:35 PM 70.9 °F - 69.4 °F 95% 30.23 in 10.0 mi Calm Calm - N/A   Clear
10:55 PM 69.8 °F - 68.9 °F 97% 30.23 in 10.0 mi Calm Calm - N/A   Clear
11:15 PM 69.3 °F - 69.3 °F 100% 30.23 in 10.0 mi Calm Calm - N/A   Clear
11:35 PM 69.8 °F - 69.8 °F 100% 30.24 in 10.0 mi Calm Calm - N/A   Clear
11:55 PM 69.3 °F - 69.3 °F 100% 30.23 in 7.0 mi Calm Calm - N/A   Clear